Regional Weather Roundup
Issued by NWS

Home | Current Version | Previous Version | Graphics & Text | Print | Product List | Glossary On
Versions: 1 2 3 4 5 6 7 8 9 10 11 12 13 14 15 16 17 18 19 20 21 22 23 24 25 26 27 28 29 30 31 32 33 34 35 36 37 38 39 40 41 42 43 44 45 46 47 48 49 50
000
ASUS43 KLMK 270902
RWRKY
KENTUCKY REGIONAL WEATHER ROUNDUP
NATIONAL WEATHER SERVICE LOUISVILLE KY
500 AM EDT WED AUG 27 2014

NOTE "FAIR" INDICATES FEW OR NO CLOUDS BELOW 12,000 FEET
WITH NO SIGNIFICANT WEATHER AND/OR OBSTRUCTIONS TO VISIBILITY.

KYZ001>023-026-027-061>063-070>075-271000-
WESTERN AND SOUTH CENTRAL KENTUCKY

CITY           SKY/WX    TMP DP  RH WIND       PRES   REMARKS
PADUCAH        CLEAR     73  70  90 CALM      30.06S FOG
HENDERSON      CLEAR     72  68  88 CALM      30.05S
OWENSBORO      CLEAR     75  74  97 CALM      30.06F
HOPKINSVILLE   CLEAR     72  72 100 W1        30.08S
BOWLING GREEN  CLEAR     72  70  93 CALM      30.08R
GLASGOW        CLEAR     68  68 100 CALM      30.08F FOG
$$

KYZ024-025-028>034-038-045-046-053-271000-
NORTH CENTRAL KENTUCKY

CITY           SKY/WX    TMP DP  RH WIND       PRES   REMARKS
LOUISVILLE/SDF PTCLDY    75  71  87 NW3       30.07S
LOUISVILLE/LOU CLEAR     73  70  90 CALM      30.08S
FORT KNOX      CLEAR     70  70 100 CALM      30.08R
$$

KYZ035>037-039>044-047>052-055>060-089>105-271000-
NORTHEAST KENTUCKY

CITY           SKY/WX    TMP DP  RH WIND       PRES   REMARKS
LEXINGTON      CLEAR     68  64  87 SE5       30.10S
COVINGTON      MOCLDY    71  67  87 CALM      30.09S
FRANKFORT      CLEAR     68  66  93 CALM      30.08F
$$

KYZ054-064>069-076>088-106>120-271000-
SOUTHEAST KENTUCKY

CITY           SKY/WX    TMP DP  RH WIND       PRES   REMARKS
JACKSON        CLEAR     65  61  87 CALM      30.12R
LONDON         CLEAR     64  60  87 CALM      30.11S
SOMERSET       CLEAR     63  63 100 CALM      30.11S
MIDDLESBORO    FOG       63  63 100 CALM      30.13S VSB 1
MONTICELLO     SUNNY     62  61  97 CALM      30.12R
$$



USA.gov is the U.S. government's official web portal to all federal, state and local government web resources and services.